Miscellaneous Local Product
Issued by NWS Hastings, NE

Home | Current Version | Previous Version | Text Only | Print | Product List | Glossary Off
Versions: 1 2 3 4 5 6 7 8 9 10 11 12 13 14 15 16 17 18 19 20 21 22 23 24 25 26 27 28 29 30 31 32 33 34 35 36 37 38 39 40 41 42 43 44 45 46 47 48 49 50

000
AXUS43 KGID 201002
MISGRI

GID CWA HOURLY WEATHER ROUNDUP
NATIONAL WEATHER SERVICE HASTINGS NE
400 AM CST THU NOV 20 2014

NOTE: "FAIR" INDICATES FEW OR NO CLOUDS BELOW 12,000 FEET WITH NO
SIGNIFICANT WEATHER AND/OR OBSTRUCTIONS TO VISIBILITY.

...SOUTH CENTRAL NEBRASKA...

CITY           SKY/WX    TMP DP  RH WIND       PRES   REMARKS
GRAND ISLAND   FAIR      13   8  81 SW3       30.14F
HASTINGS       MOCLDY    20  14  77 S5        30.13S WCI  13
KEARNEY        PTCLDY    12  10  92 CALM      30.13S
ORD            PTCLDY     6   3  87 CALM      30.10F
YORK           PTCLDY     9   7  92 SW3       30.16R
AURORA         CLEAR     11   9  89 CALM      30.13F
LEXINGTON      CLEAR     11   8  87 CALM      30.08S
HOLDREGE       CLEAR     15  12  90 SE3       30.10R
HEBRON         MOCLDY    16  12  86 CALM      30.17S

...NEBRASKA PANHANDLE...

CITY           SKY/WX    TMP DP  RH WIND       PRES   REMARKS
CHADRON        PTCLDY    10   6  84 SW3       30.02F
ALLIANCE       PTCLDY    11   7  84 SW3       30.00F
SCOTTSBLUFF    PTCLDY    13  10  88 NW6       30.00F WCI   4
SIDNEY         PTCLDY    13  10  88 NW7       30.00F WCI   3

...WESTERN AND NORTH CENTRAL NEBRASKA...

CITY           SKY/WX    TMP DP  RH WIND       PRES   REMARKS
VALENTINE      CLOUDY    19  15  84 CALM      30.08S
AINSWORTH      CLOUDY    16  14  93 CALM      30.08S
ONEILL         CLOUDY    12  10  93 W5        30.13S WCI   4
BROKEN BOW     PTCLDY     8   3  80 CALM      30.08F
IMPERIAL       PTCLDY    18  12  77 NW3       30.02F
NORTH PLATTE   PTCLDY     9   6  88 CALM      30.06F
MCCOOK         CLEAR     14  11  87 N6        30.05F WCI   5

...EASTERN NEBRASKA...

CITY           SKY/WX    TMP DP  RH WIND       PRES   REMARKS
NORFOLK        PTCLDY    12   9  87 W8        30.13F WCI   0
SO SIOUX CITY  CLOUDY    14   9  80 NW5       30.16S WCI   6
TEKAMAH        MOCLDY    15   8  73 NW6       30.17F WCI   6
COLUMBUS       PTCLDY    10   7  85 CALM      30.16F
ALBION         PTCLDY     6   2  82 CALM      30.13F
OMAHA EPPLEY   CLEAR     19  12  74 NW6       30.19S WCI  11
OFFUTT AFB     CLEAR     14  10  81 SW3       30.18S
MILLARD        CLEAR     15  11  85 CALM      30.18S
LINCOLN        CLEAR     14   9  80 CALM      30.19F
NEBRASKA CITY  CLEAR     16  10  78 W7        30.18S WCI   6
BEATRICE       PTCLDY    13  10  89 CALM      30.18S
FALLS CITY     CLEAR     14  10  84 NW3       30.20F

...NORTHERN KANSAS...

CITY           SKY/WX    TMP DP  RH WIND       PRES   REMARKS
GOODLAND       PTCLDY    15  11  83 W3        30.01F
HILL CITY      PTCLDY    14  10  84 CALM      30.08F
NORTON         SUNNY     16  10  79 E3        30.06F
PHILLIPSBURG   CLEAR     19  16  86 E6        30.11S WCI  11
BELOIT         CLEAR     21  16  79 E6        30.16S WCI  14
HAYS           PTCLDY    19   9  63 E6        30.09F WCI  11
RUSSELL        CLEAR     21  16  81 SE5       30.10F WCI  15
CONCORDIA      CLEAR     17  14  88 E5        30.16F WCI  10
SALINA         CLEAR     23  14  68 E3        30.16F
TOPEKA         CLEAR     18  12  77 CALM      30.21F



USA.gov is the U.S. government's official web portal to all federal, state and local government web resources and services.